Regional Weather Roundup
Issued by NWS Charleston, SC

Current Version | Previous Version | Text Only | Print | Product List | Glossary Off
Versions: 1 2 3 4 5 6 7 8 9 10 11 12 13 14 15 16 17 18 19 20 21 22 23 24 25 26 27 28 29 30 31 32 33 34 35 36 37 38 39 40 41 42 43 44 45 46 47 48 49 50

000
ASUS42 KCHS 151625
RWRCHS

REGIONAL WEATHER ROUNDUP
NATIONAL WEATHER SERVICE CHARLESTON SC
1200 PM EDT MON SEP 15 2014

NOTE: "FAIR" INDICATES FEW OR NO CLOUDS BELOW 12,000 FEET WITH NO
SIGNIFICANT WEATHER AND/OR OBSTRUCTIONS TO VISIBILITY.

NOT ALL STATIONS ARE QUALITY CONTROLLED BY THE NATIONAL
WEATHER SERVICE. USE DATA WITH CAUTION...ESPECIALLY
DEWPOINT OBSERVATIONS.

SCZ027-030-031-034>040-042>050-151700-
...SOUTH CAROLINA...

CITY           SKY/WX    TMP DP  RH WIND       PRES   REMARKS
N CHARLESTON   PTSUNNY   83  73  72 NE5       30.18F
WATERFRONT PRK   N/A     81 N/A N/A N5          N/A
FORT JOHNSON   NOT AVBL
MOUNT PLEASANT FAIR      82  75  78 N5        30.17F
JOHNS ISLAND   MOSUNNY   82  81  94 CALM      30.18F HX  95
PINOPOLIS        N/A     75  70  83 NE5       30.14R
MONCKS CORNER    N/A     81  75  83 N5        30.18F
SUMMERVILLE    FAIR      81  73  78 E3        30.19F
BEAUFORT MCAS  CLOUDY    77  73  87 NW3       30.18F FOG
BEAUFORT ARPT  CLOUDY    77  75  94 N5        30.17F FOG
HILTON HEAD IS CLOUDY    79  75  89 NE5       30.19F
GEORGETOWN     NOT AVBL
WALTERBORO     CLOUDY    81  73  78 CALM      30.18F
ORANGEBURG     CLOUDY    72  68  87 NE5       30.20F
BARNWELL       CLOUDY    75  70  83 E5        30.20F
AIKEN          HVY RAIN  70  70 100 E3        30.24F
MANNING        CLOUDY    73 N/A N/A CALM      30.20F
KINGSTREE      NOT AVBL
COLUMBIA       CLOUDY    73  67  81 E7        30.19F
SUMTER         CLOUDY    73  66  80 VRB3      30.20F
FLORENCE       CLOUDY    73  67  81 NE3       30.21F
MYRTLE BEACH   CLOUDY    73  68  83 N9        30.20S
N MYRTLE BEACH CLOUDY    72  68  87 N7        30.20S

$$

GAZ063-065-086>088-099>101-113>116-118-119-134-136>141-150-151700-
...GEORGIA...

CITY           SKY/WX    TMP DP  RH WIND       PRES   REMARKS
SAVANNAH ARPT  PTSUNNY   82  75  79 N7        30.18F
HUNTER AAF     SUNNY     85  75  72 VRB2      30.15F HX  92
FORT STEWART   MOSUNNY   82  75  78 VRB2      30.16S
STATESBORO     NOT AVBL
SYLVANIA       CLOUDY    76  74  94 E5        30.19F FOG
CLAXTON        NOT AVBL
THOMSON        CLOUDY    74  74 100 E3        30.24F
AUGUSTA-BUSH   CLOUDY    73  69  87 NE6       30.19F FOG
AUGUSTA-DANIEL LGT RAIN  72  69  90 NE6       30.20F
SWAINSBORO     CLOUDY    77  77 100 SE5       30.19F FOG
VIDALIA        CLOUDY    77  75  94 CALM      30.18F
ALMA           PTSUNNY   84  74  71 N8        30.16F HX  91
WAYCROSS       PTSUNNY   88  76  68 CALM      30.16F HX  99
JESUP            N/A     88  75  66 CALM      30.16F HX  97
BRUNSWICK      PTSUNNY   88  70  55 NE5       30.16F HX  92
SAINT SIMONS   SUNNY     87  72  60 E7        30.16S HX  93

$$

SCZ027-028-034-036>038-045-046-048>050-GAZ119-141-151700-
...LAKE AND SUPPLEMENTAL COASTAL OBSERVATIONS...

STATION/POSITION TIME  TEMP    WIND        PRES    WAVE   SWELL
                       AIR SEA DIR/SP/G            HT/PER HT/PER/DIR
                 (UTC) (F)     (DEG/KT/KT) (MB)    (FT/S) (FT/S/D)
UPR LAKE MARION  NOT AVBL
WINYAH BAY       1600   76      10/  4     1022.0S
LAKE MURRAY      1500   71      60/  2/  5 1022.7S
ACE BASIN NERRS  1600   74      20/  2     1022.0S
FORT PULASKI     1600   79      70/  8/ 11 1022.1F
SAPELO ISLAND    1600   86      40/  3     1022.0S

$$

ANZ835-935-AMZ111-154-330-350-352-354-374-450-454-472-151700-
...C-MAN AND BUOY OBSERVATIONS...

STATION/POSITION TIME  TEMP    WIND        PRES    WAVE   SWELL
                       AIR SEA DIR/SP/G            HT/PER HT/PER/DIR
                 (UTC) (F)     (DEG/KT/KT) (MB)    (FT/S) (FT/S/D)
FOLLY BEACH CMAN 1600   79      40/  5/  6 1022.3F
BUOY 41004       1600   81 83  100/  2/  2 1021.5R   2/ 6   2/ 6
BUOY 41008       1600   82 85   80/ 10/ 12 1021.4F   2/ 6   2/ 80/ 6
5E ST. MARYS GA  1600      85                N/A     2/ 4
FRYING PAN BUOY  NOT AVBL
BUOY 41025       1600   74      10/ 14/ 17 1022.2R   4/ 8   3/ 40/ 8
CAPE LOOKOUT NC  1600   74      40/ 13/ 14 1022.5F
BUOY 41002       1451   76 83  330/ 10/ 14 1022.4    5/ 5   3/270/ 5
BUOY 41010       1600   82 85  150/  4/  6 1021.8F   2/ 9   2/ 80/ 9
BUOY 41012       NOT AVBL
ST AUGUSTINE FL  1600   81     100/  5/  6 1022.4S
CAPERS NEARSHORE 1500   79      20/  6/  8   N/A
FRIPP NEARSHORE  NOT AVBL


$$



USA.gov is the U.S. government's official web portal to all federal, state and local government web resources and services.